TimeEDT,TemperatureF,Dew PointF,Humidity,Sea Level PressureIn,VisibilityMPH,Wind Direction,Wind SpeedMPH,Gust SpeedMPH,PrecipitationIn,Events,Conditions,WindDirDegrees,DateUTC
12:53 AM,62.1,44.1,52,30.05,10.0,ESE,4.6,-,N/A,,Clear,120,2013-05-19 04:53:00
1:53 AM,61.0,45.0,56,30.03,10.0,ESE,4.6,-,N/A,,Clear,120,2013-05-19 05:53:00
2:53 AM,57.9,45.0,62,30.01,10.0,Calm,Calm,-,N/A,,Clear,0,2013-05-19 06:53:00
3:53 AM,57.0,45.0,64,30.00,10.0,East,3.5,-,N/A,,Clear,90,2013-05-19 07:53:00
4:53 AM,57.0,44.1,62,30.01,10.0,Calm,Calm,-,N/A,,Clear,0,2013-05-19 08:53:00
5:53 AM,55.0,45.0,69,30.01,10.0,ENE,3.5,-,N/A,,Partly Cloudy,60,2013-05-19 09:53:00
6:53 AM,55.9,45.0,67,30.02,10.0,Calm,Calm,-,N/A,,Partly Cloudy,0,2013-05-19 10:53:00
7:53 AM,60.8,46.4,59,30.03,10.0,SE,5.8,-,N/A,,Partly Cloudy,140,2013-05-19 11:53:00
8:53 AM,64.0,50.0,60,30.01,10.0,ESE,5.8,-,N/A,,Partly Cloudy,120,2013-05-19 12:53:00
9:53 AM,69.1,53.1,57,30.01,10.0,SE,5.8,-,N/A,,Partly Cloudy,130,2013-05-19 13:53:00
10:53 AM,73.0,55.0,53,30.00,10.0,SSE,4.6,-,N/A,,Partly Cloudy,150,2013-05-19 14:53:00
11:53 AM,77.0,57.9,52,30.00,10.0,SE,4.6,-,N/A,,Partly Cloudy,140,2013-05-19 15:53:00
12:53 PM,79.0,57.9,48,29.98,10.0,SE,8.1,-,N/A,,Partly Cloudy,130,2013-05-19 16:53:00
1:53 PM,79.0,59.0,50,29.96,10.0,SSE,4.6,-,N/A,,Mostly Cloudy,150,2013-05-19 17:53:00
2:53 PM,82.4,59.0,45,29.95,10.0,Variable,6.9,-,N/A,,Mostly Cloudy,0,2013-05-19 18:53:00
3:53 PM,82.4,57.2,42,29.95,10.0,Calm,Calm,-,N/A,,Mostly Cloudy,0,2013-05-19 19:53:00
4:53 PM,82.9,57.9,42,29.91,10.0,Variable,6.9,-,N/A,,Scattered Clouds,0,2013-05-19 20:53:00
5:53 PM,82.0,57.9,44,29.90,10.0,SSE,6.9,-,N/A,,Scattered Clouds,150,2013-05-19 21:53:00
6:53 PM,82.9,57.9,42,29.90,10.0,SE,6.9,-,N/A,,Scattered Clouds,140,2013-05-19 22:53:00
7:53 PM,81.0,57.9,45,29.89,10.0,SE,9.2,-,N/A,,Scattered Clouds,130,2013-05-19 23:53:00
8:53 PM,77.0,60.1,56,29.90,10.0,South,8.1,-,N/A,,Partly Cloudy,180,2013-05-20 00:53:00
9:53 PM,73.9,60.1,62,29.91,10.0,SSE,5.8,-,N/A,,Scattered Clouds,160,2013-05-20 01:53:00
10:53 PM,73.0,60.1,64,29.91,10.0,SSE,5.8,-,N/A,,Scattered Clouds,150,2013-05-20 02:53:00
11:53 PM,69.8,60.8,73,29.94,10.0,SSE,3.5,-,N/A,,Mostly Cloudy,150,2013-05-20 03:53:00